Regional Weather Roundup
Issued by NWS State College, PA

Home | Current Version | Previous Version | Text Only | Print | Product List | Glossary On
Versions: 1 2 3 4 5 6 7 8 9 10 11 12 13 14 15 16 17 18 19 20 21 22 23 24 25 26 27 28 29 30 31 32 33 34 35 36 37 38 39 40 41 42 43 44 45 46 47 48 49 50
000
ASUS41 KCTP 270010
RWRCTP

REGIONAL WEATHER ROUNDUP
NATIONAL WEATHER SERVICE STATE COLLEGE PA
800 PM EDT WED JUL 26 2017

Note: "fair" indicates few or no clouds below 12,000 feet with no
significant weather and/or obstructions to visibility.

* = STATION THAT DOES NOT REPORT PRECIPITATION /E.G. RAIN...SNOW...ETC/
    THUNDER OR FOG.

PAZ002>004-007>009-013>016-020>023-029>032-270100-
WESTERN PENNSYLVANIA

CITY           SKY/WX    TMP DP  RH WIND       PRES   REMARKS
ERIE           CLOUDY    74  61  63 NW7       30.10R
MEADVILLE      MOCLDY    74  65  73 CALM      30.10S
FRANKLIN*      MOCLDY    73  63  68 CALM      30.11F
NEW CASTLE     FAIR      77  66  68 CALM      30.09S
BEAVER COUNTY  CLEAR     75  64  69 CALM      30.09R
BUTLER*        CLOUDY    73  63  68 CALM      30.09R
PITTSBURGH INT CLOUDY    77  63  61 W3        30.08R
PITTSBURGH     MOCLDY    76  59  55 S3        30.08R
INDIANA*       CLEAR     75  70  83 CALM      30.11S
LATROBE        PTCLDY    75  64  69 SW3       30.09S
WASHINGTON CO* CLOUDY    72  64  78 CALM      30.08S
$$

PAZ004>006-010>012-017>019-024>028-033>037-041-042-045-046-049>053-270100-
CENTRAL PENNSYLVANIA

CITY           SKY/WX    TMP DP  RH WIND       PRES   REMARKS
BRADFORD       PTCLDY    71  63  75 CALM      30.14R
DUBOIS         CLOUDY    72  61  68 CALM      30.12R
CLEARFIELD     CLOUDY    72  61  68 CALM      30.11F
JOHNSTOWN      PTCLDY    70  62  76 SE7       30.13S
ALTOONA        PTCLDY    70  63  78 SE5       30.12F
STATE COLLEGE  PTCLDY    72  61  68 S5        30.11F
WILLIAMSPORT   PTCLDY    74  64  71 CALM      30.08S
SELINSGROVE    PTCLDY    71  69  93 CALM      30.10S
FT INDIANTOWN  MOCLDY    73  67  81 CALM      30.10S
CAPITAL CITY   PTCLDY    78  63  59 SE7       30.09S
HARRISBURG     MOCLDY    74  67  78 SE7       30.08S
YORK           CLEAR     75  66  73 SE6       30.10S
$$

PAZ038>040-043-044-047-048-054-055-060>062-067>071-270100-
EASTERN PENNSYLVANIA

CITY           SKY/WX    TMP DP  RH WIND       PRES   REMARKS
SCRANTON       PTCLDY    72  62  71 VRB5      30.12S
MOUNT POCONO   CLEAR     65  61  87 S5        30.17S
ALLENTOWN      MOCLDY    74  61  63 SE6       30.12F
QUAKERTOWN*    CLOUDY    73  63  68 SE3       30.14S
READING        PTCLDY    75  64  68 SE6       30.10S
LANCASTER      PTCLDY    75  65  70 S7        30.10S
COATESVILLE    CLEAR     73  63  68 VRB3      30.14S
POTTSTOWN      MOCLDY    72  62  71 E5        30.14S
BLUE BELL      MOCLDY    70  61  73 SE5       30.14S
DOYLESTOWN     CLEAR     71  61  70 VRB3      30.13S
WILLOW GROVE   NOT AVBL
NORTH PHILA    PTCLDY    74  61  63 SE7       30.15R
PHILADELPHIA   MOCLDY    73  63  70 SE7       30.13S
$$



USA.gov is the U.S. government's official web portal to all federal, state and local government web resources and services.